| time (UTC) | temp F | wind direction | speed knots | gust knots | rain 1hr in | rain 24hr in | rain mn in | humidity % | barometer mb |
| 20260506023003 | 50 | 34 | 0.0 | 7.0 | 0.00 | 0.00 | 0.00 | 81 | 1013.2 |
| 20260506020004 | 50 | 86 | 0.0 | 4.3 | 0.00 | 0.00 | 0.00 | 82 | 1013.3 |
| 20260506010005 | 50 | 22 | 1.7 | 7.8 | 0.00 | 0.00 | 0.00 | 81 | 1013.3 |
| 20260506003004 | 50 | 44 | 0.9 | 5.2 | 0.00 | 0.00 | 0.00 | 81 | 1013.6 |
| 20260506000004 | 50 | 56 | 0.9 | 6.1 | 0.00 | 0.00 | 0.00 | 79 | 1013.5 |
| 20260505223004 | 51 | 62 | 0.9 | 7.8 | 0.00 | 0.00 | 0.00 | 75 | 1013.5 |
| 20260505210004 | 51 | 329 | 0.0 | 0.9 | 0.00 | 0.00 | 0.00 | 73 | 1013.4 |
| 20260505203004 | 51 | 12 | 0.0 | 1.7 | 0.00 | 0.00 | 0.00 | 73 | 1013.3 |
| 20260505200004 | 51 | 296 | 0.0 | 0.9 | 0.00 | 0.00 | 0.00 | 72 | 1013.0 |
| 20260505193004 | 53 | 38 | 0.9 | 2.6 | 0.00 | 0.00 | 0.00 | 68 | 1012.6 |
| 20260505190004 | 55 | 44 | 1.7 | 5.2 | 0.00 | 0.00 | 0.00 | 64 | 1012.5 |
| 20260505183006 | 56 | 69 | 1.7 | 7.0 | 0.00 | 0.00 | 0.00 | 61 | 1012.3 |
| 20260505173003 | 58 | 68 | 1.7 | 10.4 | 0.00 | 0.00 | 0.00 | 55 | 1012.4 |
| 20260505170003 | 59 | 44 | 2.6 | 10.4 | 0.00 | 0.00 | 0.00 | 55 | 1012.4 |
| 20260505153003 | 61 | 67 | 6.1 | 11.3 | 0.00 | 0.00 | 0.00 | 56 | 1012.3 |
| 20260505123004 | 62 | 76 | 4.3 | 10.4 | 0.00 | 0.00 | 0.00 | 58 | 1012.9 |
| 20260505113003 | 61 | 50 | 3.5 | 7.8 | 0.00 | 0.00 | 0.00 | 62 | 1013.3 |
| 20260505100003 | 57 | 58 | 4.3 | 10.4 | 0.00 | 0.00 | 0.00 | 66 | 1013.5 |
| 20260505083004 | 55 | 283 | 2.6 | 8.7 | 0.00 | 0.00 | 0.00 | 75 | 1013.8 |
| 20260505070003 | 51 | 37 | 1.7 | 6.1 | 0.00 | 0.00 | 0.00 | 87 | 1014.0 |
| 20260505063003 | 50 | 58 | 2.6 | 7.8 | 0.00 | 0.00 | 0.00 | 90 | 1014.1 |
| 20260505060005 | 49 | 302 | 0.9 | 7.0 | 0.00 | 0.00 | 0.00 | 91 | 1014.1 |